Location: Ehrke Reservoir
(40.0279°N, 99.6641°W)
Time: 09:22:01
(UTC+00:00)

STARLINK-1088 - Pass Details

Date: 20 January 2020
Orbit: 345 x 354 km, 53.0° (Epoch: 28 February)

Event Time Altitude Azimuth Distance (km) Brightness Sun altitude
Rises 00:06:48 0° 250° (WSW) 2,170 9.7 -5.2°
Reaches altitude 10° 00:08:55 10° 261° (W) 1,329 7.2 -5.6°
Maximum altitude 00:11:38 32° 327° (NNW) 640 4.1 -6.0°
Drops below altitude 10° 00:14:22 10° 34° (NNE) 1,336 5.1 -6.5°
Enters shadow 00:15:08 - 39° (NE) 1,632 5.5 -6.7°
